Bellingham, Washington, United States (98225)
Lat: 48.76N, Lon: 122.49W
Wx Zone: WAZ503
Local Info
Past Weather Observations for Friday, January 23, 2015

NOTE: This archive is for the closest National Weather Service station to Bellingham. Information may differ from the station used for current weather conditions.

Click here for Long-term Archive

Time Weather Temperature Dewpoint Humidity Pressure Winds Precip Visibility
23:53
Overcast
Light Rain
54°F / 12°C 52°F / 11°C 94% 30.24 in
(1024 mb)
S 9.2 mph
(S 15 kph)
0.03 in
(0.76 mm)
10SM
23:39
Overcast
Light Rain
54°F / 12°C 52°F / 11°C 94% 30.24 in
(1024 mb)
SSE 9.2 mph
(SSE 15 kph)
0.02 in
(0.51 mm)
7SM
23:18
Overcast
Light Rain
54°F / 12°C 52°F / 11°C 94% 30.24 in
(1024 mb)
SSE 11.5 mph
(SSE 19 kph)
0.01 in
(0.25 mm)
22:53
Overcast
Light Rain
52°F / 11°C 52°F / 11°C 100% 30.21 in
(1023 mb)
S 10.4 mph
(S 17 kph)
0.09 in
(2.29 mm)
3SM
22:40
Overcast
Light Rain
52°F / 11°C 52°F / 11°C 100% 30.21 in
(1023 mb)
S 10.4 mph
(S 17 kph)
0.07 in
(1.78 mm)
3SM
21:56
Overcast
Rain
54°F / 12°C 52°F / 11°C 94% 30.21 in
(1023 mb)
S 17.3 mph
(S 28 kph)
0.00 in
(0.00 mm)
3SM
21:53
Overcast
Rain
54°F / 12°C 52°F / 11°C 94% 30.21 in
(1023 mb)
SSE 17.3 mph
(SSE 28 kph)
0.08 in
(2.03 mm)
2 1/2SM
20:53
Overcast
Light Rain
55°F / 13°C 52°F / 11°C 88% 30.18 in
(1022 mb)
SSE 16.1 mph
(SSE 26 kph)
0.04 in
(1.02 mm)
3SM
19:53
Overcast
Light Rain
55°F / 13°C 50°F / 10°C 82% 30.18 in
(1022 mb)
SSE 12.7 mph
(SSE 20 kph)
0.02 in
(0.51 mm)
6SM
18:53
Mostly Cloudy
55°F / 13°C 50°F / 10°C 82% 30.15 in
(1021 mb)
SSE 17.3 mph
(SSE 28 kph)
0.01 in
(0.25 mm)
10SM
17:53
Overcast
Light Rain
55°F / 13°C 50°F / 10°C 82% 30.18 in
(1022 mb)
SSE 15 mph
(SSE 24 kph)
0.02 in
(0.51 mm)
6SM
16:53
Overcast
Light Rain
54°F / 12°C 50°F / 10°C 88% 30.15 in
(1021 mb)
SSE 13.8 mph
(SSE 22 kph)
0.01 in
(0.25 mm)
10SM
15:53
Overcast
Rain
54°F / 12°C 50°F / 10°C 88% 30.21 in
(1023 mb)
SSE 15 mph
(SSE 24 kph)
0.13 in
(3.30 mm)
4SM
15:30
Overcast
Rain
52°F / 11°C 50°F / 10°C 94% 30.21 in
(1023 mb)
S 12.7 mph
(S 20 kph)
0.08 in
(2.03 mm)
2SM
15:26
Overcast
Rain
52°F / 11°C 50°F / 10°C 94% 30.21 in
(1023 mb)
S 11.5 mph
(S 19 kph)
0.07 in
(1.78 mm)
1 3/4SM
15:14
Overcast
Light Rain
52°F / 11°C 48°F / 9°C 88% 30.21 in
(1023 mb)
S 11.5 mph
(S 19 kph)
0.03 in
(0.76 mm)
2 1/2SM
14:53
Overcast
54°F / 12°C 48°F / 9°C 82% 30.21 in
(1023 mb)
SSE 16.1 mph
(SSE 26 kph)
0.02 in
(0.51 mm)
10SM
13:53
Overcast
Light Rain
54°F / 12°C 48°F / 9°C 82% 30.21 in
(1023 mb)
S 10.4 mph
(S 17 kph)
0.09 in
(2.29 mm)
4SM
12:53
Overcast
Light Rain
55°F / 13°C 48°F / 9°C 77% 30.21 in
(1023 mb)
SSE 18.4 mph
(SSE 30 kph)
0.08 in
(2.03 mm)
5SM
11:53
Overcast
Light Rain
55°F / 13°C 48°F / 9°C 77% 30.24 in
(1024 mb)
SSE 23 mph
(SSE 37 kph)
0.02 in
(0.51 mm)
8SM
10:53
Overcast
55°F / 13°C 48°F / 9°C 77% 30.24 in
(1024 mb)
SSE 17.3 mph
(SSE 28 kph)
- 10SM
09:53
Overcast
55°F / 13°C 48°F / 9°C 77% 30.27 in
(1025 mb)
SSE 12.7 mph
(SSE 20 kph)
0.00 in
(0.00 mm)
10SM
08:53
Overcast
Light Rain
54°F / 12°C 48°F / 9°C 82% 30.27 in
(1025 mb)
SSE 13.8 mph
(SSE 22 kph)
0.03 in
(0.76 mm)
10SM
07:53
Overcast
Light Rain
54°F / 12°C 46°F / 8°C 77% 30.3 in
(1026 mb)
SSE 9.2 mph
(SSE 15 kph)
0.07 in
(1.78 mm)
10SM
06:53
Overcast
Rain
52°F / 11°C 46°F / 8°C 82% 30.3 in
(1026 mb)
ESE 8.1 mph
(ESE 13 kph)
0.04 in
(1.02 mm)
7SM
05:53
Overcast
46°F / 8°C 43°F / 6°C 87% 30.33 in
(1027 mb)
Calm 0.00 in
(0.00 mm)
10SM
04:53
Overcast
46°F / 8°C 45°F / 7°C 93% 30.33 in
(1027 mb)
Calm - 10SM
04:28
Overcast
45°F / 7°C 45°F / 7°C 100% 30.33 in
(1027 mb)
NW 3.5 mph
(NW 6 kph)
- 9SM
03:53
Overcast
46°F / 8°C 45°F / 7°C 93% 30.36 in
(1028 mb)
N 3.5 mph
(N 6 kph)
0.00 in
(0.00 mm)
9SM
02:53
Overcast
Light Rain
45°F / 7°C 43°F / 6°C 93% 30.33 in
(1027 mb)
N 3.5 mph
(N 6 kph)
0.02 in
(0.51 mm)
7SM
01:53
Overcast
Light Rain
45°F / 7°C 43°F / 6°C 93% 30.36 in
(1028 mb)
NE 4.6 mph
(NE 7 kph)
0.02 in
(0.51 mm)
4SM
00:53
Overcast
Light Rain
45°F / 7°C 43°F / 6°C 93% 30.36 in
(1028 mb)
N 5.8 mph
(N 9 kph)
0.02 in
(0.51 mm)
8SM
Time Weather Temperature Dewpoint Humidity Pressure Winds Precip Visibility


Weather for websites

WeatherForYou.com, LLC is not responsible for any damages or problems caused by this service. Current weather conditions are obtained from the closest station including government and personal stations which may have varying degrees of accuracy. Weather forecasts are derived from the NOAA NDFD. Like all things, this site belongs to Jesus Christ... He just trusts me to maintain it. If you have any questions or comments email webmaster@weatherforyou.com

Copyright © 2015, WeatherForYou.com LLC. All rights reserved.